Crescent City, CA

3:14 PM PST on February 23, 2017 (GMT -0800)
McNamara

Weather History for KCEC - January, 2014

Change the Weather History Date:

Monday, January 27, 2014

  Actual Average Record
Temperature  
Mean Temperature 46 °F 48 °F  
Max Temperature 53 °F 54 °F 66 °F (2011)
Min Temperature 39 °F 41 °F 29 °F (1957)
Degree Days  
Heating Degree Days 19 17  
Month to date heating degree days 418 459  
Since 1 July heating degree days 2655 2615  
Cooling Degree Days 0 0  
Month to date cooling degree days 0 0  
Year to date cooling degree days 0 0  
Moisture  
Dew Point 43 °F    
Average Humidity 86    
Maximum Humidity 100    
Minimum Humidity 71    
Precipitation  
Precipitation T in 0.25 in 2.39 in (1954)
Month to date precipitation 1.14 9.37  
Year to date precipitation 1.14 9.37  
Since 1 July precipitation 10.13  
Snow  
Snow 0.00 in - - ()
Month to date snowfall 0.0  
Since 1 July snowfall 0.0  
Snow Depth 0.00 in    
Sea Level Pressure  
Sea Level Pressure 30.14 in    
Wind  
Wind Speed 4 mph (SE)    
Max Wind Speed 9 mph    
Max Gust Speed 11 mph    
Visibility 6 miles    
Events Fog , Rain    
T = Trace of Precipitation, MM = Missing Value Source: NWS Daily Summary

Daily Weather History Graph

Daily Weather History Graph

Search for Another Location

Airport or City:

Trip Planner

Search our weather history database for the weather conditions in past years. The results will help you decide how hot, cold, wet, or windy it might be!

Date:

Astronomy

Jan. 27, 2014 Rise Set
Actual Time 7:33 AM PST 5:26 PM PST
Civil Twilight 7:04 AM PST 5:56 PM PST
Nautical Twilight 6:30 AM PST 6:29 PM PST
Astronomical Twilight 5:57 AM PST 7:02 PM PST
Moon 4:21 AM PST (1/27) 2:17 PM PST (1/27)
Length of Visible Light 10h 52m
Length of Day
9h 52m
Waning Crescent, 14% of the Moon is Illuminated
Jan 27
Waning Crescent
Jan 30
New
Feb 6
First Quarter
Feb 14
Full
Feb 22
Last Quarter

Hourly Weather History & Observations

Time (PST) Temp. Windchill Dew Point Humidity Pressure Visibility Wind Dir Wind Speed Gust Speed Precip Events Conditions
12:35 AM 42.1 °F 39.2 °F 39.9 °F 92% 30.09 in 1.0 mi East 4.6 mph - N/A   Mist
12:56 AM 41.0 °F - 39.9 °F 96% 30.09 in 1.5 mi Calm Calm - N/A   Overcast
1:03 AM 39.9 °F 37.8 °F 39.9 °F 100% 30.09 in 3.0 mi West 3.5 mph - N/A   Mostly Cloudy
1:08 AM 39.0 °F 36.8 °F 37.9 °F 96% 30.10 in 2.5 mi West 3.5 mph - N/A   Scattered Clouds
1:12 AM 39.0 °F 36.8 °F 37.9 °F 96% 30.10 in 1.2 mi West 3.5 mph - N/A   Scattered Clouds
1:16 AM 39.0 °F 35.7 °F 37.9 °F 96% 30.10 in 0.8 mi West 4.6 mph - N/A   Mist
1:22 AM 39.0 °F - 37.9 °F 96% 30.10 in 1.2 mi Calm Calm - N/A   Partly Cloudy
1:25 AM 39.9 °F 37.8 °F 39.0 °F 97% 30.10 in 2.0 mi West 3.5 mph - N/A   Clear
1:36 AM 41.0 °F - 39.9 °F 96% 30.10 in 3.0 mi Calm Calm - N/A   Partly Cloudy
1:42 AM 42.1 °F - 41.0 °F 96% 30.11 in 1.8 mi Calm Calm - N/A   Scattered Clouds
1:44 AM 42.1 °F - 41.0 °F 96% 30.11 in 1.0 mi Calm Calm - N/A   Mist
1:51 AM 42.8 °F 39.3 °F 41.0 °F 93% 30.12 in 0.2 mi WNW 5.8 mph - N/A Fog Fog
1:56 AM 44.1 °F 41.5 °F 42.1 °F 93% 30.13 in 0.2 mi WNW 4.6 mph - N/A Fog Fog
2:56 AM 43.0 °F 40.3 °F 42.1 °F 97% 30.13 in 0.2 mi ENE 4.6 mph - N/A Fog Fog
3:56 AM 42.1 °F 40.2 °F 41.0 °F 96% 30.13 in 1.0 mi NE 3.5 mph - N/A   Mist
3:59 AM 42.1 °F - 41.0 °F 96% 30.13 in 2.0 mi Calm Calm - N/A   Mostly Cloudy
4:02 AM 42.1 °F - 41.0 °F 96% 30.13 in 3.0 mi Calm Calm - N/A   Scattered Clouds
4:56 AM 42.1 °F 40.2 °F 41.0 °F 96% 30.11 in 10.0 mi ESE 3.5 mph - N/A   Clear
5:56 AM 43.0 °F 41.3 °F 41.0 °F 93% 30.11 in 10.0 mi ESE 3.5 mph - N/A   Clear
6:56 AM 43.0 °F - 42.1 °F 97% 30.13 in 7.0 mi Calm Calm - N/A   Clear
7:56 AM 45.0 °F - 43.0 °F 93% 30.15 in 10.0 mi Calm Calm - N/A   Clear
8:56 AM 46.0 °F 43.9 °F 43.0 °F 89% 30.17 in 10.0 mi East 4.6 mph - N/A   Clear
9:56 AM 48.9 °F - 44.1 °F 83% 30.17 in 10.0 mi SE 4.6 mph - N/A   Clear
10:56 AM 50.0 °F - 43.0 °F 77% 30.20 in 9.0 mi South 4.6 mph - N/A   Partly Cloudy
11:56 AM 52.0 °F - 43.0 °F 71% 30.19 in 10.0 mi South 5.8 mph - N/A   Overcast
12:56 PM 52.0 °F - 44.1 °F 74% 30.16 in 10.0 mi South 6.9 mph - N/A   Overcast
1:56 PM 52.0 °F - 46.0 °F 80% 30.15 in 9.0 mi South 8.1 mph - N/A   Overcast
2:56 PM 52.0 °F - 46.9 °F 83% 30.16 in 9.0 mi SE 6.9 mph - N/A   Overcast
3:56 PM 51.1 °F - 46.9 °F 86% 30.18 in 8.0 mi SE 5.8 mph - 0.00 in   Overcast
4:56 PM 51.1 °F - 46.0 °F 83% 30.17 in 10.0 mi ESE 3.5 mph - N/A   Overcast
5:56 PM 50.0 °F - 46.9 °F 89% 30.17 in 8.0 mi SSE 4.6 mph - N/A   Overcast
6:56 PM 50.0 °F - 46.9 °F 89% 30.19 in 9.0 mi SSE 5.8 mph - N/A   Overcast
7:56 PM 50.0 °F - 46.0 °F 86% 30.19 in 10.0 mi SE 4.6 mph - 0.00 in Rain Light Rain
8:56 PM 50.0 °F - 46.9 °F 89% 30.19 in 8.0 mi SE 4.6 mph - 0.00 in   Overcast
9:56 PM 50.0 °F - 46.9 °F 89% 30.18 in 8.0 mi SE 4.6 mph - N/A   Overcast
10:56 PM 50.0 °F - 46.9 °F 89% 30.19 in 9.0 mi Calm Calm - N/A   Overcast
11:56 PM 51.1 °F - 46.9 °F 86% 30.19 in 9.0 mi East 4.6 mph - N/A   Overcast